Погода в Отделении № 2 совхозе № 6

Узбекистан     41°25′56″N   69°27′55″E
темп.,
°C
ветер,
м/с
пор.,
м/с
влажн.,
%
обл.,
%
осадки,
мм/ч
давл.,
гПа
погр.,
м
7 марта, вс
вс723:00+6св1167100 0.0 101722
02:00+5ююв4686100 0.9 1017240
05:00+5юв6788100 4.4 1019284
08:00+5ююв4690100 2.8 1020444
11:00+5ю4691100 3.5 1021388
14:00+8зюз127596 0.1 1020517
17:00+9зюз116590 0.1 1019538
20:00+6с1280100 0.0 101924
8 марта, пн
пн823:00+6в1176100 0.0 101923
02:00+7вюв1273100 0.0 101923
05:00+6юв1277100 0.0 102026
08:00+6юв1278100 0.0 102137
11:00+10ююз2461100 0.0 1022579
14:00+13ююз345282 0.0 10211172
17:00+13юз234942 0.0 10211338
20:00+9св226297 0.0 102222
9 марта, вт
вт923:00+8всв346098 0.0 102257
02:00+6всв575187 0.0 102096
05:00+5всв574560 0.0 1019102
08:00+6всв574261 0.0 1018119
11:00+14всв353274 0.0 1015287
14:00+16вюв1226100 0.0 1014670
17:00+14св3645100 0.0 1012129
20:00+12всв5850100 0.0 1012140
10 марта, ср
ср1023:00+12всв91248100 0.0 1011162
02:00+10св5857100 0.1 1010127
05:00+10всв6956100 0.2 1011149
08:00+10вюв61166100 0.3 1013346
11:00+12юв3862100 0.4 1014916
14:00+13ю5664100 2.2 10141047
17:00+11ююз3579100 6.2 1016301
20:00+7в1288100 3.7 1018136
11 марта, чт
чт1123:00+6ссз4690100 6.4 1017498
02:00+3ссз71094100 3.0 1017603
05:00+2ссз4696100 6.0 1020317
08:00+2зсз2395100 1.1 1024239
11:00+4ю2380100 1.1 1024565
14:00+7вюв226359 0.0 1022807
17:00+8всв125130 0.0 1021604
20:00+5всв23680 0.0 102124